User: anonymous   Login
Location: Unspecified
(0.0000°N, 0.0000°E)
Time: 23:30:01
(UTC+00:00)
Language:

Shinsei - Orbit

View from above orbital plane
View from above orbital plane
View from above satellite
View from above satellite

Ground track
Ground track

The orbit data is extracted from the following two-line orbital elements,

1  5485U 71080A   19294.08063027  .00000041  00000-0  28904-4 0  9991
2  5485  32.0529 181.2142 0640170 166.6177 195.2283 12.74135854239190
Epoch (UTC): 21 October 2019 01:56:06
Eccentricity: 0.0640170
inclination: 32.0529°
perigee height: 869 km
apogee height: 1861 km
right ascension of ascending node: 181.2142°
argument of perigee: 166.6177°
revolutions per day: 12.74135854
mean anomaly at epoch: 195.2283°
orbit number at epoch: 23919

The dashed part of the orbit path shows where the satellite is in the earth's shadow,  

DLR